CGMPW BGGH-BIRK

Flight info

Callsign CGMPW
Flight time N/A
Altitude 27000
Route EVULO1A EVULO Y47 DA UT592 NONRO/M084F410 DCT INGAN
Aircraft C700/L-SBDGHM1RWXY/LB2

Departure

Time 2026-04-26 21:13
Airport Nuuk International Airport (BGGH)

Arrival

Time N/A
Airport Reykjavík Domestic Airport (BIRK)
Time Latitude Longitude Altitude Speed Heading
2026-04-26 21:13 64.32277 -51.08272 10026 ft 349 kts 69°
2026-04-26 21:13 64.32990 -51.02888 10033 ft 353 kts 69°
2026-04-26 21:13 64.33706 -50.97478 10171 ft 346 kts 69°
2026-04-26 21:14 64.34415 -50.92200 11303 ft 354 kts 69°
2026-04-26 21:14 64.35188 -50.86675 12480 ft 366 kts 69°
2026-04-26 21:14 64.35986 -50.80977 13681 ft 379 kts 69°
2026-04-26 21:14 64.36789 -50.75175 14756 ft 390 kts 72°
2026-04-26 21:15 64.37133 -50.68887 15857 ft 398 kts 86°
2026-04-26 21:15 64.37088 -50.62434 17003 ft 404 kts 89°
2026-04-26 21:15 64.37012 -50.55908 18196 ft 408 kts 87°
2026-04-26 21:15 64.37157 -50.49358 19233 ft 408 kts 81°
2026-04-26 21:16 64.37483 -50.42872 20294 ft 406 kts 79°
2026-04-26 21:16 64.37673 -50.38585 21035 ft 405 kts 81°
2026-04-26 21:16 64.37841 -50.32103 22160 ft 403 kts 83°
2026-04-26 21:16 64.37974 -50.25655 23340 ft 399 kts 82°
2026-04-26 21:17 64.38237 -50.17226 24611 ft 394 kts 82°
2026-04-26 21:17 64.38379 -50.12960 25281 ft 392 kts 83°
2026-04-26 21:17 64.38622 -50.06806 26281 ft 385 kts 77°
2026-04-26 21:17 64.39286 -50.00839 26948 ft 388 kts 67°
2026-04-26 21:18 64.40217 -49.94789 26964 ft 410 kts 66°
2026-04-26 21:18 64.41213 -49.88383 26976 ft 433 kts 68°
2026-04-26 21:18 64.42230 -49.81615 26974 ft 454 kts 69°
2026-04-26 21:18 64.43275 -49.74562 26968 ft 472 kts 69°
2026-04-26 21:19 64.44374 -49.67242 26951 ft 488 kts 69°
2026-04-26 21:19 64.45500 -49.59756 26953 ft 492 kts 69°
2026-04-26 21:19 64.46611 -49.52268 26948 ft 490 kts 69°
2026-04-26 21:19 64.47699 -49.44887 26947 ft 490 kts 69°
2026-04-26 21:20 64.48803 -49.37401 26936 ft 491 kts 69°
2026-04-26 21:20 64.49913 -49.29861 26937 ft 493 kts 69°
2026-04-26 21:20 64.51013 -49.22331 26938 ft 492 kts 69°
2026-04-26 21:20 64.52106 -49.14805 26937 ft 491 kts 70°
2026-04-26 21:21 64.53193 -49.07308 26941 ft 490 kts 70°
2026-04-26 21:21 64.54278 -48.99799 26926 ft 490 kts 71°
2026-04-26 21:21 64.55360 -48.92261 26927 ft 491 kts 71°
2026-04-26 21:21 64.56440 -48.84708 26931 ft 491 kts 71°
2026-04-26 21:22 64.57516 -48.77162 26926 ft 492 kts 71°
2026-04-26 21:22 64.58588 -48.69594 26908 ft 492 kts 72°
2026-04-26 21:22 64.59654 -48.62016 26909 ft 493 kts 72°
2026-04-26 21:23 64.61772 -48.46944 26915 ft 492 kts 72°
2026-04-26 21:23 64.62825 -48.39375 26886 ft 490 kts 72°
2026-04-26 21:23 64.63801 -48.31769 26884 ft 489 kts 74°
2026-04-26 21:23 64.64763 -48.24146 26885 ft 491 kts 74°
2026-04-26 21:24 64.65744 -48.16498 26895 ft 492 kts 75°
2026-04-26 21:24 64.66714 -48.08810 26896 ft 492 kts 76°
2026-04-26 21:24 64.67665 -48.01130 26887 ft 491 kts 76°
2026-04-26 21:24 64.68613 -47.93476 26886 ft 490 kts 76°
2026-04-26 21:25 64.69564 -47.85825 26881 ft 489 kts 76°
2026-04-26 21:25 64.70507 -47.78177 26864 ft 490 kts 76°
2026-04-26 21:25 64.71434 -47.70595 26865 ft 491 kts 76°
2026-04-26 21:25 64.72371 -47.62900 26857 ft 492 kts 76°
2026-04-26 21:26 64.73306 -47.55196 26858 ft 493 kts 76°
2026-04-26 21:26 64.74239 -47.47480 26858 ft 491 kts 76°
2026-04-26 21:26 64.75163 -47.39782 26857 ft 490 kts 76°
2026-04-26 21:26 64.76081 -47.32102 26846 ft 489 kts 77°
2026-04-26 21:27 64.76994 -47.24422 26845 ft 490 kts 77°
2026-04-26 21:27 64.77908 -47.16698 26825 ft 492 kts 78°
2026-04-26 21:27 64.78820 -47.08936 26825 ft 495 kts 78°
2026-04-26 21:27 64.79720 -47.01117 26826 ft 494 kts 78°
2026-04-26 21:28 64.80612 -46.93345 26817 ft 492 kts 78°
2026-04-26 21:28 64.81507 -46.85689 26816 ft 492 kts 78°
2026-04-26 21:28 64.82414 -46.77903 26816 ft 494 kts 78°
2026-04-26 21:28 64.83308 -46.70086 26729 ft 496 kts 78°
2026-04-26 21:29 64.84194 -46.62298 26713 ft 490 kts 78°
2026-04-26 21:29 64.85074 -46.54555 26687 ft 492 kts 79°
2026-04-26 21:29 64.85956 -46.46751 26689 ft 494 kts 79°
2026-04-26 21:29 64.86835 -46.38940 26689 ft 492 kts 79°
2026-04-26 21:30 64.87693 -46.31272 26690 ft 490 kts 79°
2026-04-26 21:30 64.88558 -46.23476 26677 ft 492 kts 79°
2026-04-26 21:30 64.89422 -46.15659 26678 ft 494 kts 79°
2026-04-26 21:30 64.90285 -46.07828 26678 ft 493 kts 79°
2026-04-26 21:31 64.91140 -46.00026 26678 ft 491 kts 79°
2026-04-26 21:31 64.91990 -45.92226 26644 ft 490 kts 79°
2026-04-26 21:31 64.92832 -45.84433 26643 ft 491 kts 79°
2026-04-26 21:31 64.93671 -45.76614 26644 ft 493 kts 79°
2026-04-26 21:32 64.94512 -45.68770 26645 ft 494 kts 79°
2026-04-26 21:32 64.95349 -45.60919 26629 ft 491 kts 80°
2026-04-26 21:32 64.96178 -45.53090 26594 ft 492 kts 81°
2026-04-26 21:32 64.96998 -45.45307 26615 ft 486 kts 81°
2026-04-26 21:33 64.97799 -45.37655 26612 ft 486 kts 81°
2026-04-26 21:33 64.98610 -45.29884 26593 ft 488 kts 81°
2026-04-26 21:33 64.99389 -45.22070 26594 ft 488 kts 82°
2026-04-26 21:33 65.00125 -45.14246 26600 ft 486 kts 82°
2026-04-26 21:34 65.00892 -45.06455 26597 ft 485 kts 82°
2026-04-26 21:34 65.01703 -44.98695 26590 ft 486 kts 81°
2026-04-26 21:34 65.02502 -44.90927 26587 ft 487 kts 82°
2026-04-26 21:34 65.03249 -44.83106 26586 ft 487 kts 83°